| time (UTC) | temp F | wind direction | speed MPH | gust MPH | rain 1hr in | rain 24hr in | rain mn in | humidity % | barometer mb |
| 20260510095845 | 68 | 0.0 | 0.0 | 0.00 | 0.00 | 0.00 | 68 | 1015.4 | |
| 20260510094845 | 69 | 0.0 | 0.0 | 0.00 | 0.00 | 0.00 | 67 | 1015.6 | |
| 20260510093845 | 69 | 0.0 | 0.0 | 0.00 | 0.00 | 0.00 | 66 | 1015.6 | |
| 20260510092844 | 69 | 0.0 | 0.0 | 0.00 | 0.00 | 0.00 | 67 | 1015.7 | |
| 20260510091845 | 69 | 0.0 | 0.0 | 0.00 | 0.00 | 0.00 | 67 | 1015.7 | |
| 20260510090845 | 69 | 0.0 | 0.0 | 0.00 | 0.00 | 0.00 | 68 | 1015.7 | |
| 20260510085845 | 68 | 0.0 | 0.0 | 0.00 | 0.00 | 0.00 | 68 | 1015.6 | |
| 20260510084844 | 68 | 0.0 | 0.0 | 0.00 | 0.00 | 0.00 | 67 | 1015.2 | |
| 20260510083844 | 68 | 0.0 | 0.0 | 0.00 | 0.00 | 0.00 | 68 | 1015.4 | |
| 20260510082846 | 68 | 0.0 | 0.0 | 0.00 | 0.00 | 0.00 | 67 | 1015.5 | |
| 20260510081845 | 68 | 0.0 | 0.0 | 0.00 | 0.00 | 0.00 | 67 | 1015.5 | |
| 20260510080844 | 68 | 0.0 | 0.0 | 0.00 | 0.00 | 0.00 | 67 | 1015.7 | |
| 20260510075844 | 68 | 0.0 | 0.0 | 0.00 | 0.00 | 0.00 | 66 | 1015.7 | |
| 20260510074844 | 69 | 0.0 | 0.0 | 0.00 | 0.00 | 0.00 | 66 | 1015.9 | |
| 20260510073845 | 69 | 0.0 | 0.0 | 0.00 | 0.00 | 0.00 | 66 | 1015.6 | |
| 20260510072845 | 69 | 0.0 | 0.0 | 0.00 | 0.00 | 0.00 | 65 | 1015.6 | |
| 20260510071845 | 68 | 0.0 | 0.0 | 0.00 | 0.00 | 0.00 | 65 | 1015.6 | |
| 20260510070844 | 68 | 0.0 | 0.0 | 0.00 | 0.00 | 0.00 | 66 | 1015.7 | |
| 20260510065844 | 68 | 0.0 | 0.0 | 0.00 | 0.00 | 0.00 | 65 | 1015.6 | |
| 20260510064844 | 68 | 0.0 | 0.0 | 0.00 | 0.00 | 0.00 | 64 | 1015.4 | |
| 20260510063845 | 69 | 0.0 | 0.0 | 0.00 | 0.00 | 0.00 | 65 | 1015.9 | |
| 20260510062845 | 69 | 0.0 | 0.0 | 0.00 | 0.00 | 0.00 | 66 | 1015.8 | |
| 20260510061844 | 68 | 0.0 | 0.0 | 0.00 | 0.00 | 0.00 | 68 | 1015.8 | |
| 20260510060844 | 67 | 0.0 | 0.0 | 0.00 | 0.00 | 0.00 | 69 | 1015.6 | |
| 20260510055844 | 67 | 0.0 | 0.0 | 0.00 | 0.00 | 0.00 | 71 | 1015.7 | |
| 20260510054845 | 65 | 0.0 | 0.0 | 0.00 | 0.00 | 0.00 | 74 | 1015.3 | |
| 20260510053845 | 62 | 0.0 | 0.0 | 0.00 | 0.00 | 0.00 | 75 | 1015.5 | |
| 20260510052845 | 62 | 0.0 | 0.0 | 0.00 | 0.00 | 0.00 | 75 | 1015.6 | |
| 20260510051844 | 62 | 0.0 | 0.0 | 0.00 | 0.00 | 0.00 | 74 | 1015.6 | |
| 20260510050845 | 62 | 0.0 | 0.0 | 0.00 | 0.00 | 0.00 | 74 | 1015.9 | |
| 20260510045844 | 63 | 0.0 | 0.0 | 0.00 | 0.00 | 0.00 | 74 | 1015.9 | |
| 20260510044844 | 62 | 0.0 | 0.0 | 0.00 | 0.00 | 0.00 | 72 | 1015.8 | |
| 20260510043846 | 63 | 0.0 | 0.0 | 0.00 | 0.00 | 0.00 | 72 | 1015.5 | |
| 20260510042844 | 62 | 0.0 | 0.0 | 0.00 | 0.00 | 0.00 | 72 | 1015.8 | |
| 20260510041843 | 62 | 0.0 | 0.0 | 0.00 | 0.00 | 0.00 | 72 | 1015.4 | |
| 20260510040845 | 62 | 0.0 | 0.0 | 0.00 | 0.00 | 0.00 | 72 | 1015.5 | |
| 20260510035845 | 62 | 0.0 | 0.0 | 0.00 | 0.00 | 0.00 | 74 | 1015.8 | |
| 20260510034844 | 61 | 0.0 | 0.0 | 0.00 | 0.00 | 0.00 | 75 | 1015.7 | |
| 20260510033845 | 61 | 0.0 | 0.0 | 0.00 | 0.00 | 0.00 | 76 | 1015.9 | |
| 20260510032845 | 61 | 0.0 | 0.0 | 0.00 | 0.00 | 0.00 | 76 | 1016.0 | |
| 20260510031844 | 61 | 0.0 | 0.0 | 0.00 | 0.00 | 0.00 | 76 | 1015.9 | |
| 20260510030845 | 61 | 0.0 | 0.0 | 0.00 | 0.00 | 0.00 | 75 | 1015.9 | |
| 20260510025845 | 61 | 0.0 | 0.0 | 0.00 | 0.00 | 0.00 | 74 | 1016.1 | |
| 20260510024844 | 62 | 0.0 | 0.0 | 0.00 | 0.00 | 0.00 | 73 | 1016.0 | |
| 20260510023845 | 62 | 0.0 | 0.0 | 0.00 | 0.00 | 0.00 | 71 | 1016.2 | |
| 20260510022845 | 62 | 0.0 | 0.0 | 0.00 | 0.00 | 0.00 | 71 | 1016.2 | |
| 20260510021844 | 62 | 0.0 | 0.0 | 0.00 | 0.00 | 0.00 | 71 | 1016.3 | |
| 20260510020845 | 63 | 0.0 | 0.0 | 0.00 | 0.00 | 0.00 | 71 | 1016.4 | |
| 20260510015844 | 63 | 0.0 | 0.0 | 0.00 | 0.00 | 0.00 | 71 | 1016.4 | |
| 20260510014844 | 63 | 0.0 | 0.0 | 0.00 | 0.00 | 0.00 | 72 | 1016.3 | |
| 20260510013844 | 62 | 0.0 | 0.0 | 0.00 | 0.00 | 0.00 | 73 | 1016.2 | |
| 20260510012844 | 63 | 0.0 | 0.0 | 0.00 | 0.00 | 0.00 | 73 | 1016.7 | |
| 20260510011845 | 63 | 0.0 | 0.0 | 0.00 | 0.00 | 0.00 | 73 | 1016.3 | |
| 20260510010844 | 63 | 0.0 | 0.0 | 0.00 | 0.00 | 0.00 | 73 | 1016.4 | |
| 20260510005845 | 64 | 0.0 | 0.0 | 0.00 | 0.00 | 0.00 | 72 | 1016.6 | |
| 20260510004845 | 64 | 0.0 | 0.0 | 0.00 | 0.00 | 0.00 | 72 | 1016.6 | |
| 20260510003844 | 64 | 0.0 | 0.0 | 0.00 | 0.00 | 0.00 | 71 | 1016.4 | |
| 20260510002844 | 64 | 0.0 | 0.0 | 0.00 | 0.00 | 0.00 | 71 | 1016.5 | |
| 20260510001844 | 64 | 0.0 | 0.0 | 0.00 | 0.00 | 0.00 | 71 | 1016.7 | |
| 20260510000844 | 64 | 0.0 | 0.0 | 0.00 | 0.00 | 0.00 | 70 | 1016.5 | |
| 20260509235845 | 64 | 0.0 | 0.0 | 0.00 | 0.00 | 0.00 | 70 | 1016.6 | |
| 20260509234845 | 64 | 0.0 | 0.0 | 0.00 | 0.00 | 0.00 | 70 | 1016.7 | |
| 20260509233845 | 64 | 0.0 | 0.0 | 0.00 | 0.00 | 0.00 | 70 | 1016.8 | |
| 20260509232845 | 64 | 0.0 | 0.0 | 0.00 | 0.00 | 0.00 | 70 | 1016.7 | |
| 20260509231845 | 64 | 0.0 | 0.0 | 0.00 | 0.00 | 0.00 | 70 | 1016.8 | |
| 20260509230844 | 64 | 0.0 | 0.0 | 0.00 | 0.00 | 0.00 | 70 | 1017.0 | |
| 20260509225845 | 64 | 0.0 | 0.0 | 0.00 | 0.00 | 0.00 | 70 | 1016.8 | |
| 20260509224845 | 64 | 0.0 | 0.0 | 0.00 | 0.00 | 0.00 | 70 | 1016.8 | |
| 20260509223846 | 64 | 0.0 | 0.0 | 0.00 | 0.00 | 0.00 | 70 | 1016.6 | |
| 20260509222844 | 64 | 0.0 | 0.0 | 0.00 | 0.00 | 0.00 | 70 | 1016.9 | |
| 20260509221845 | 65 | 0.0 | 0.0 | 0.00 | 0.00 | 0.00 | 70 | 1016.7 | |
| 20260509220844 | 66 | 0.0 | 0.0 | 0.00 | 0.00 | 0.00 | 70 | 1016.5 | |
| 20260509215846 | 66 | 0.0 | 0.0 | 0.00 | 0.00 | 0.00 | 70 | 1016.5 | |
| 20260509214844 | 66 | 0.0 | 0.0 | 0.00 | 0.00 | 0.00 | 70 | 1016.7 | |
| 20260509213844 | 67 | 0.0 | 0.0 | 0.00 | 0.00 | 0.00 | 70 | 1016.6 | |
| 20260509212845 | 67 | 0.0 | 0.0 | 0.00 | 0.00 | 0.00 | 70 | 1016.5 | |
| 20260509211845 | 67 | 0.0 | 0.0 | 0.00 | 0.00 | 0.00 | 70 | 1016.3 | |
| 20260509210845 | 67 | 0.0 | 0.0 | 0.00 | 0.00 | 0.00 | 69 | 1016.6 | |
| 20260509205844 | 67 | 0.0 | 0.0 | 0.00 | 0.00 | 0.00 | 68 | 1016.4 | |
| 20260509204844 | 67 | 0.0 | 0.0 | 0.00 | 0.00 | 0.00 | 69 | 1016.5 | |
| 20260509203845 | 68 | 0.0 | 0.0 | 0.00 | 0.00 | 0.00 | 69 | 1016.2 | |
| 20260509202844 | 68 | 0.0 | 0.0 | 0.00 | 0.00 | 0.00 | 69 | 1016.4 | |
| 20260509201845 | 68 | 0.0 | 0.0 | 0.00 | 0.00 | 0.00 | 68 | 1016.0 | |
| 20260509200845 | 68 | 0.0 | 0.0 | 0.00 | 0.00 | 0.00 | 68 | 1016.0 | |
| 20260509195844 | 68 | 0.0 | 0.0 | 0.00 | 0.00 | 0.00 | 68 | 1016.0 | |
| 20260509194845 | 68 | 0.0 | 0.0 | 0.00 | 0.00 | 0.00 | 68 | 1015.9 | |
| 20260509193845 | 69 | 0.0 | 0.0 | 0.00 | 0.00 | 0.00 | 67 | 1015.7 | |
| 20260509192846 | 69 | 0.0 | 0.0 | 0.00 | 0.00 | 0.00 | 67 | 1015.9 | |
| 20260509191845 | 69 | 0.0 | 0.0 | 0.00 | 0.00 | 0.00 | 68 | 1015.3 | |
| 20260509190845 | 69 | 0.0 | 0.0 | 0.00 | 0.00 | 0.00 | 67 | 1015.2 | |
| 20260509185844 | 69 | 0.0 | 0.0 | 0.00 | 0.00 | 0.00 | 68 | 1014.9 | |
| 20260509184845 | 70 | 0.0 | 0.0 | 0.00 | 0.00 | 0.00 | 67 | 1015.1 | |
| 20260509183845 | 71 | 0.0 | 0.0 | 0.00 | 0.00 | 0.00 | 66 | 1014.6 | |
| 20260509182845 | 71 | 0.0 | 0.0 | 0.00 | 0.00 | 0.00 | 65 | 1014.6 | |
| 20260509181846 | 72 | 0.0 | 0.0 | 0.00 | 0.00 | 0.00 | 64 | 1014.3 | |
| 20260509180845 | 73 | 0.0 | 0.0 | 0.00 | 0.00 | 0.00 | 61 | 1014.6 | |
| 20260509175844 | 74 | 0.0 | 0.0 | 0.00 | 0.00 | 0.00 | 59 | 1014.4 | |
| 20260509174845 | 74 | 0.0 | 0.0 | 0.00 | 0.00 | 0.00 | 58 | 1014.2 | |
| 20260509173845 | 74 | 0.0 | 0.0 | 0.00 | 0.00 | 0.00 | 58 | 1014.4 | |
| 20260509172846 | 75 | 0.0 | 0.0 | 0.00 | 0.00 | 0.00 | 57 | 1014.4 | |
| 20260509171845 | 75 | 0.0 | 0.0 | 0.00 | 0.00 | 0.00 | 57 | 1014.3 | |
| 20260509170845 | 75 | 0.0 | 0.0 | 0.00 | 0.00 | 0.00 | 57 | 1014.4 | |
| 20260509165845 | 76 | 0.0 | 0.0 | 0.00 | 0.00 | 0.00 | 56 | 1014.3 | |
| 20260509164844 | 76 | 0.0 | 0.0 | 0.00 | 0.00 | 0.00 | 56 | 1014.3 | |
| 20260509163845 | 76 | 0.0 | 0.0 | 0.00 | 0.00 | 0.00 | 56 | 1014.3 | |
| 20260509162844 | 76 | 0.0 | 0.0 | 0.00 | 0.00 | 0.00 | 56 | 1014.3 | |
| 20260509161844 | 76 | 0.0 | 0.0 | 0.00 | 0.00 | 0.00 | 56 | 1014.3 | |
| 20260509160846 | 77 | 0.0 | 0.0 | 0.00 | 0.00 | 0.00 | 56 | 1014.5 | |
| 20260509155845 | 77 | 0.0 | 0.0 | 0.00 | 0.00 | 0.00 | 55 | 1014.5 | |
| 20260509154845 | 77 | 0.0 | 0.0 | 0.00 | 0.00 | 0.00 | 56 | 1014.2 | |
| 20260509153845 | 77 | 0.0 | 0.0 | 0.00 | 0.00 | 0.00 | 55 | 1014.4 | |
| 20260509152845 | 77 | 0.0 | 0.0 | 0.00 | 0.00 | 0.00 | 55 | 1014.2 | |
| 20260509151844 | 77 | 0.0 | 0.0 | 0.00 | 0.00 | 0.00 | 55 | 1014.3 | |
| 20260509150845 | 77 | 0.0 | 0.0 | 0.00 | 0.00 | 0.00 | 55 | 1014.4 | |
| 20260509145845 | 78 | 0.0 | 0.0 | 0.00 | 0.00 | 0.00 | 56 | 1014.6 | |
| 20260509144845 | 77 | 0.0 | 0.0 | 0.00 | 0.00 | 0.00 | 55 | 1014.5 | |
| 20260509143845 | 78 | 0.0 | 0.0 | 0.00 | 0.00 | 0.00 | 55 | 1014.8 | |
| 20260509142845 | 78 | 0.0 | 0.0 | 0.00 | 0.00 | 0.00 | 55 | 1014.8 | |
| 20260509141844 | 78 | 0.0 | 0.0 | 0.00 | 0.00 | 0.00 | 56 | 1014.9 | |
| 20260509140845 | 78 | 0.0 | 0.0 | 0.00 | 0.00 | 0.00 | 54 | 1015.0 | |
| 20260509135845 | 78 | 0.0 | 0.0 | 0.00 | 0.00 | 0.00 | 55 | 1015.1 | |
| 20260509134844 | 78 | 0.0 | 0.0 | 0.00 | 0.00 | 0.00 | 55 | 1015.2 | |
| 20260509133845 | 78 | 0.0 | 0.0 | 0.00 | 0.00 | 0.00 | 54 | 1015.2 | |
| 20260509132844 | 77 | 0.0 | 0.0 | 0.00 | 0.00 | 0.00 | 55 | 1015.2 | |
| 20260509131845 | 77 | 0.0 | 0.0 | 0.00 | 0.00 | 0.00 | 54 | 1015.6 | |
| 20260509130844 | 78 | 0.0 | 0.0 | 0.00 | 0.00 | 0.00 | 56 | 1015.4 | |
| 20260509125845 | 77 | 0.0 | 0.0 | 0.00 | 0.00 | 0.00 | 56 | 1015.3 | |
| 20260509124845 | 77 | 0.0 | 0.0 | 0.00 | 0.00 | 0.00 | 56 | 1015.5 | |
| 20260509123845 | 77 | 0.0 | 0.0 | 0.00 | 0.00 | 0.00 | 58 | 1015.3 | |
| 20260509122844 | 76 | 0.0 | 0.0 | 0.00 | 0.00 | 0.00 | 56 | 1015.3 | |
| 20260509121845 | 77 | 0.0 | 0.0 | 0.00 | 0.00 | 0.00 | 57 | 1015.6 | |
| 20260509120844 | 75 | 0.0 | 0.0 | 0.00 | 0.00 | 0.00 | 57 | 1015.5 | |
| 20260509115845 | 77 | 0.0 | 0.0 | 0.00 | 0.00 | 0.00 | 59 | 1015.7 | |
| 20260509114844 | 77 | 0.0 | 0.0 | 0.00 | 0.00 | 0.00 | 59 | 1015.8 | |
| 20260509113844 | 76 | 0.0 | 0.0 | 0.00 | 0.00 | 0.00 | 56 | 1016.0 | |
| 20260509112845 | 77 | 0.0 | 0.0 | 0.00 | 0.00 | 0.00 | 58 | 1016.2 | |
| 20260509111845 | 77 | 0.0 | 0.0 | 0.00 | 0.00 | 0.00 | 58 | 1016.1 | |
| 20260509110844 | 77 | 0.0 | 0.0 | 0.00 | 0.00 | 0.00 | 59 | 1016.4 | |
| 20260509105844 | 76 | 0.0 | 0.0 | 0.00 | 0.00 | 0.00 | 59 | 1016.5 | |
| 20260509104844 | 78 | 0.0 | 0.0 | 0.00 | 0.00 | 0.00 | 60 | 1016.6 | |
| 20260509103845 | 78 | 0.0 | 0.0 | 0.00 | 0.00 | 0.00 | 60 | 1016.6 | |
| 20260509102844 | 78 | 0.0 | 0.0 | 0.00 | 0.00 | 0.00 | 60 | 1016.8 | |
| 20260509101844 | 78 | 0.0 | 0.0 | 0.00 | 0.00 | 0.00 | 60 | 1016.8 | |
| 20260509100844 | 77 | 0.0 | 0.0 | 0.00 | 0.00 | 0.00 | 59 | 1017.2 |